Location: Gradaro
(45.0833°N, 10.8833°E)
Time: 06:19:58
(UTC+00:00)

Cosmos 1862 - Pass Details

Date: 29 November 2020
Orbit: 537 x 556 km, 82.5° (Epoch: 27 January)

Event Time Altitude Azimuth Distance (km) Brightness Sun altitude
Rises 05:21:55 0° 203° (SSW) 2,722 6.8 -12.2°
Reaches altitude 10° 05:24:09 10° 210° (SSW) 1,834 5.9 -11.8°
Maximum altitude 05:28:01 44° 283° (WNW) 777 3.6 -11.2°
Drops below altitude 10° 05:31:56 10° 356° (N) 1,850 5.8 -10.5°
Sets 05:34:12 0° 3° (N) 2,750 6.7 -10.2°
